SL-16 DEB, 39301

Orbit data source: Space-Track

SL-16 DEB, 39301 is space debris in LEO originally from a launch on Fri, 25 Dec 1992 UTC launched from the Tyuratam Missile And Space Complex (TTMTR). Debris objects in space refer to the collection of defunct objects orbiting the Earth. Examples of debris include non-operational satellites, rocket bodies, and fragments generated from explosions, collisions, or faulty payload assembly.

Loading next visibility...
Identifier
39301, 1992-093JS
Orbit
LEO
Country
Flag of CISCIS
Related business
Manufacturer
Unknown
Mission
Spacecraft
Bus & Motor
Unknown
Mass
Unknown
Launch date (UTC)
1992-12-25 (33 years ago)
Launch vehicle
Unknown
Launch site
Tyuratam Missile And Space Complex (TTMTR)
Object type
Payload
Rocket body
Debris
Shape & HBR
Unknown shape, 0.1 m
Radar Cross Section
Small (<0.1 m²)

Expand to show TLE details & history
Last TLE update: 3 days ago

TLE from 3 days ago
0 SL-16 DEB
1 39301U 92093JS  26130.07977919 -.00000224  00000-0 -95814-4 0  9991
2 39301  70.8810 264.0193 0032742 342.4751  17.5237 14.11684197656151
Epoch: 2026-05-10T01:54Z
TLE epoch observation values (Epoch: 2026-05-10T01:54:52.922Z)
Latitude
0.00008°
Longitude
7.41082°
Altitude
833.427 km
Speed
7.448 km/s
True Right ascension
17h 36m 04s
True Declination
0° 00' 00"
Sunlit
Object was in full shadow at epoch
Visualization orbit readout
Latitude
Unknown
Longitude
Unknown
Altitude
Unknown
Speed
Unknown
Apparent Right ascension
Unknown
Apparent Declination
Unknown
Sunlit
N/A
Visualization observer readout
Local Sidereal Time
19:33:54
Azimuth
Unknown
Elevation
Unknown
Doppler factor
Unknown
Orbital elements
Apogee altitude
875.225 km
Perigee altitude
827.882 km
Semi-major axis
7,229.691 km
Eccentricity
0.00327
Inclination
70.881°
RAAN
264.0193°
Arg. of periapsis
342.4751°
True anomaly
17.63711°
Mean anomaly
17.5237°
Eccentric anomaly
17.58036°
Mean motion
3.53072 °/min
Orbital period
101.96 mins
BSTAR
-0.000095814
Loading maneuver chart data...
Computing Atmospheric mass density...
Loading historical data...
Loading historical data...
Loading historical data...
Loading historical data...
Loading historical data...
Loading historical data...
Loading historical data...

Documentation

Showing up to 5 results
|